Location: ???????????
(55.5758°N, 38.4970°E)
Time: 18:21:15
(UTC+00:00)

Cosmos 1544 Rocket - Pass Details

Date: 15 November 2025
Orbit: 599 x 622 km, 82.5° (Epoch: 14 December)

Event Time Altitude Azimuth Distance (km) Brightness Sun altitude
Rises 03:58:07 0° 350° (N) 2,900 6.7 -8.7°
Reaches altitude 10° 04:00:24 10° 356° (N) 1,994 5.9 -8.4°
Maximum altitude 04:04:43 52° 73° (ENE) 779 4.5 -7.9°
Drops below altitude 10° 04:09:02 10° 150° (SSE) 1,989 7.0 -7.3°
Sets 04:11:18 0° 155° (SSE) 2,893 7.8 -7.0°
